Date String (YYYY-MM-DD hh:mm:ss) UTC,Instrument flags,Ambient pressure (hPa),Sample flow (lpm),Bypass flow (lpm),Sample temperature (°C),Ambient temperature (°C),ASC tube jacket temperature (°C),LED temperature (°C),Box temperature (°C),Sample RH (%),Span deviation,Mass concentration (μg/m³),Mass concentration (μg/m³),Mass concentration (μg/m³)
DateTimeUTC,F1_M11,P_M11,Q1_M11,Q2_M11,T1_M11,T2_M11,T3_M11,T4_M11,T5_M11,U1_M11,ZSPAN_M11,X0_M11,X2_M11,X1_M11
2023-01-02 23:00:00,,0815.7,5.02,0.00,22.5,21.4,00.0,31.4,24.3,15.4,-000.3,0007.29,0005.39,0005.30
2023-01-02 23:01:00,,0815.6,5.00,0.00,22.6,22.4,00.0,31.4,24.5,15.3,-001.0,0007.33,0005.41,0005.31
2023-01-02 23:02:00,,0815.7,4.97,0.00,22.7,23.2,00.0,31.4,24.8,15.2,-000.7,0007.36,0005.43,0005.33
2023-01-02 23:03:00,,0815.7,4.99,0.00,22.8,23.0,00.0,31.5,24.8,15.2,-000.8,0007.37,0005.45,0005.35
2023-01-02 23:04:00,,0815.7,5.02,0.00,22.8,22.6,00.0,31.5,24.7,15.1,-001.6,0007.40,0005.47,0005.37
2023-01-02 23:05:00,,0815.7,4.98,0.00,22.8,22.2,00.0,31.5,24.7,15.1,-002.0,0007.44,0005.51,0005.40
2023-01-02 23:06:00,,0815.7,5.05,0.00,22.8,21.9,00.0,31.6,24.6,15.1,-001.8,0007.43,0005.51,0005.41
2023-01-02 23:07:00,,0815.7,4.98,0.00,22.8,21.8,00.0,31.6,24.6,15.1,-000.6,0007.47,0005.55,0005.45
2023-01-02 23:08:00,,0815.7,5.01,0.00,22.8,21.6,00.0,31.6,24.6,15.1,-002.2,0007.52,0005.61,0005.51
2023-01-02 23:09:00,,0815.6,5.02,0.00,22.8,21.5,00.0,31.6,24.5,15.1,-002.3,0007.56,0005.66,0005.56
2023-01-02 23:10:00,,0815.7,5.00,0.00,22.8,21.5,00.0,31.6,24.5,15.1,-002.2,0007.60,0005.70,0005.60
2023-01-02 23:11:00,,0815.6,5.01,0.00,22.8,21.4,00.0,31.6,24.5,15.1,-001.8,0007.68,0005.77,0005.67
2023-01-02 23:12:00,,0815.6,5.05,0.00,22.8,21.3,00.0,31.6,24.5,15.1,-001.4,0007.89,0005.81,0005.71
2023-01-02 23:13:00,,0815.6,4.97,0.00,22.7,21.3,00.0,31.6,24.5,15.1,-001.7,0007.92,0005.85,0005.76
2023-01-02 23:14:00,,0815.7,4.98,0.00,22.7,21.3,00.0,31.6,24.4,15.1,-001.0,0007.95,0005.90,0005.81
2023-01-02 23:15:00,,0815.6,4.98,0.00,22.7,21.3,00.0,31.6,24.4,15.1,-000.4,0008.00,0005.95,0005.86
2023-01-02 23:16:00,,0815.7,5.08,0.00,22.7,21.2,00.0,31.6,24.4,15.1,-000.5,0008.05,0005.99,0005.90
2023-01-02 23:17:00,,0815.7,5.00,0.00,22.7,21.2,00.0,31.6,24.4,15.1,-000.8,0008.06,0006.01,0005.93
2023-01-02 23:18:00,,0815.7,5.00,0.00,22.7,21.2,00.0,31.6,24.4,15.1,-000.4,0008.09,0006.02,0005.93
2023-01-02 23:19:00,,0815.8,4.97,0.00,22.7,21.2,00.0,31.6,24.4,15.1,0000.1,0008.14,0006.03,0005.93
2023-01-02 23:20:00,,0815.7,5.02,0.00,22.7,21.2,00.0,31.5,24.4,15.1,-000.4,0008.22,0006.06,0005.94
2023-01-02 23:21:00,,0815.7,4.98,0.00,22.7,21.2,00.0,31.5,24.4,15.1,-000.2,0008.40,0006.09,0005.95
2023-01-02 23:22:00,,0815.7,5.03,0.00,22.7,21.2,00.0,31.5,24.4,15.1,0000.0,0008.78,0006.10,0005.95
2023-01-02 23:23:00,,0815.7,5.04,0.00,22.7,21.2,00.0,31.5,24.4,15.2,-000.5,0008.86,0006.11,0005.96
2023-01-02 23:24:00,,0815.7,5.01,0.00,22.7,21.2,00.0,31.5,24.4,15.2,-000.0,0008.91,0006.12,0005.96
2023-01-02 23:25:00,,0815.7,4.96,0.00,22.7,21.2,00.0,31.5,24.4,15.2,-001.8,0008.96,0006.13,0005.96
2023-01-02 23:26:00,,0815.7,4.97,0.00,22.7,21.2,00.0,31.5,24.4,15.2,-002.3,0009.00,0006.13,0005.95
2023-01-02 23:27:00,,0815.7,4.97,0.00,22.6,21.2,00.0,31.5,24.4,15.2,-001.8,0009.06,0006.15,0005.95
2023-01-02 23:28:00,,0815.7,4.99,0.00,22.6,21.2,00.0,31.5,24.3,15.2,-001.9,0009.13,0006.17,0005.96
2023-01-02 23:29:00,,0815.6,4.97,0.00,22.6,21.1,00.0,31.5,24.3,15.2,-001.9,0009.17,0006.20,0005.97
2023-01-02 23:30:00,,0815.7,4.99,0.00,22.6,21.1,00.0,31.5,24.4,15.2,-001.7,0009.17,0006.21,0005.98
2023-01-02 23:31:00,,0815.6,5.08,0.00,22.6,21.1,00.0,31.5,24.4,15.2,-001.3,0009.10,0006.19,0005.98
2023-01-02 23:32:00,,0815.6,5.00,0.00,22.6,21.1,00.0,31.5,24.3,15.2,-000.8,0008.92,0006.18,0005.98
2023-01-02 23:33:00,,0815.7,4.98,0.00,22.6,21.1,00.0,31.5,24.3,15.2,-000.2,0008.55,0006.17,0005.98
2023-01-02 23:34:00,,0815.7,5.04,0.00,22.6,21.1,00.0,31.5,24.3,15.2,0000.0,0008.32,0006.18,0005.99
2023-01-02 23:35:00,,0815.6,5.00,0.00,22.6,21.1,00.0,31.5,24.3,15.2,0000.2,0008.28,0006.19,0006.00
2023-01-02 23:36:00,,0815.6,4.97,0.00,22.6,21.1,00.0,31.5,24.3,15.2,0000.2,0008.31,0006.21,0006.01
2023-01-02 23:37:00,,0815.6,4.98,0.00,22.6,21.1,00.0,31.4,24.3,15.2,0000.0,0008.32,0006.22,0006.01
2023-01-02 23:38:00,,0815.6,4.98,0.00,22.6,21.1,00.0,31.4,24.3,15.2,-000.0,0008.22,0006.19,0006.01
2023-01-02 23:39:00,,0815.7,5.04,0.00,22.6,21.1,00.0,31.4,24.3,15.2,-000.1,0008.17,0006.17,0006.00
2023-01-02 23:40:00,,0815.7,5.04,0.00,22.6,21.1,00.0,31.4,24.3,15.2,-000.3,0008.13,0006.14,0005.98
2023-01-02 23:41:00,,0815.7,4.97,0.00,22.6,21.1,00.0,31.4,24.3,15.2,-000.2,0008.06,0006.10,0005.95
2023-01-02 23:42:00,,0815.7,5.04,0.00,22.6,21.1,00.0,31.4,24.3,15.2,0000.0,0008.05,0006.09,0005.94
2023-01-02 23:43:00,,0815.7,4.99,0.00,22.6,21.1,00.0,31.4,24.3,15.2,-000.3,0008.03,0006.07,0005.92
2023-01-02 23:44:00,,0815.7,5.00,0.00,22.6,21.1,00.0,31.4,24.3,15.2,-000.5,0008.07,0006.08,0005.91
2023-01-02 23:45:00,,0815.8,4.98,0.00,22.6,21.1,00.0,31.4,24.3,15.2,-001.1,0008.15,0006.08,0005.89
2023-01-02 23:46:00,,0815.8,5.03,0.00,22.5,21.1,00.0,31.4,24.3,15.2,-002.0,0008.15,0006.04,0005.85
2023-01-02 23:47:00,,0815.8,4.96,0.00,22.5,21.0,00.0,31.4,24.3,15.2,-002.3,0008.08,0006.00,0005.84
2023-01-02 23:48:00,,0815.8,4.98,0.00,22.6,21.3,00.0,31.3,24.4,15.2,-001.8,0008.04,0005.99,0005.83
2023-01-02 23:49:00,,0815.8,4.98,0.00,22.6,22.1,00.0,31.3,24.6,15.1,-002.0,0008.06,0005.99,0005.82
2023-01-02 23:50:00,,0815.8,4.98,0.00,22.7,22.8,00.0,31.3,24.8,15.1,-001.7,0008.06,0005.98,0005.81
2023-01-02 23:51:00,,0815.8,4.99,0.00,22.8,22.7,00.0,31.4,24.8,15.0,-001.2,0008.08,0006.00,0005.81
2023-01-02 23:52:00,,0815.8,5.00,0.00,22.8,22.4,00.0,31.4,24.7,15.0,-001.4,0008.16,0006.05,0005.83
2023-01-02 23:53:00,,0815.8,5.03,0.00,22.8,22.1,00.0,31.5,24.7,15.0,-002.3,0008.27,0006.08,0005.83
2023-01-02 23:54:00,,0815.7,4.98,0.00,22.8,21.9,00.0,31.5,24.6,15.0,-002.3,0008.39,0006.11,0005.84
2023-01-02 23:55:00,,0815.7,5.00,0.00,22.8,21.8,00.0,31.5,24.6,15.0,-002.3,0008.42,0006.13,0005.86
2023-01-02 23:56:00,,0815.7,5.02,0.00,22.8,21.7,00.0,31.5,24.6,15.0,-002.0,0008.41,0006.12,0005.85
2023-01-02 23:57:00,,0815.8,5.04,0.00,22.8,21.6,00.0,31.5,24.6,15.0,-001.7,0008.39,0006.14,0005.87
2023-01-02 23:58:00,,0815.7,4.97,0.00,22.8,21.5,00.0,31.5,24.6,15.0,-001.1,0008.44,0006.17,0005.89
2023-01-02 23:59:00,,0815.8,4.96,0.00,22.8,21.5,00.0,31.5,24.6,15.0,-001.1,0008.49,0006.17,0005.90
